Location: Burbank
(38.7788°N, 114.0429°W)
Time: 21:50:35
(UTC+00:00)

S-56A Canister/Altair - Pass Details

Date: 12 May 2026
Orbit: 632 x 2484 km, 38.9° (Epoch: 8 June)

Event Time Altitude Azimuth Distance (km) Brightness Sun altitude
Rises 10:08:57 0° 281° (W) 3,405 - -22.3°
Reaches altitude 10° 10:11:14 10° 274° (W) 2,638 - -22.0°
Exits shadow 10:15:15 36° 241° (WSW) 1,683 8.7 -21.5°
Maximum altitude 10:17:11 43° 205° (SSW) 1,626 8.7 -21.2°
Drops below altitude 10° 10:25:53 10° 138° (SE) 3,850 11.0 -20.1°
Sets 10:29:55 0° 133° (SE) 5,146 11.8 -19.5°
